GW5833 Weather Reports


Display with metric or nautical units.
time (UTC)temp
F
wind
direction
speed
MPH
gust
MPH
rain 1hr
in
rain 24hr
in
rain mn
in
humidity
%
barometer
mb
20260510220415 75 299 15.0 20.0 0.00 0.00 0.00 27 1021.9
20260510215911 77 310 7.0 12.0 0.00 0.00 0.00 26 1021.7
20260510215409 76 315 9.0 19.0 0.00 0.00 0.00 26 1021.9
20260510214906 77 319 14.0 19.0 0.00 0.00 0.00 25 1021.9
20260510214403 76 311 7.0 20.0 0.00 0.00 0.00 26 1022.1
20260510213900 77 333 8.0 17.0 0.00 0.00 0.00 25 1021.9
20260510213356 77 15 11.0 20.0 0.00 0.00 0.00 24 1022.1
20260510212853 78 326 4.0 21.0 0.00 0.00 0.00 25 1021.8
20260510212350 77 106 11.0 12.0 0.00 0.00 0.00 25 1021.6
20260510211847 76 34 7.0 17.0 0.00 0.00 0.00 25 1022.2
20260510211343 76 321 16.0 26.0 0.00 0.00 0.00 25 1021.9
20260510210839 77 308 9.0 17.0 0.00 0.00 0.00 25 1021.9
20260510210334 78 323 17.0 19.0 0.00 0.00 0.00 24 1021.9
20260510205833 79 319 5.0 15.0 0.00 0.00 0.00 22 1021.8
20260510205329 78 311 13.0 14.0 0.00 0.00 0.00 22 1022.3
20260510204825 80 313 6.0 15.0 0.00 0.00 0.00 21 1022.2
20260510204322 82 99 6.0 9.0 0.00 0.00 0.00 11 1021.9
20260510203818 82 150 3.0 6.0 0.00 0.00 0.00 10 1021.9
20260510203316 82 40 3.0 4.0 0.00 0.00 0.00 10 1021.8
20260510202816 82 255 2.0 5.0 0.00 0.00 0.00 10 1022.1
20260510202312 81 105 2.0 4.0 0.00 0.00 0.00 10 1022.1
20260510201809 81 104 4.0 5.0 0.00 0.00 0.00 10 1021.9
20260510201306 81 266 2.0 5.0 0.00 0.00 0.00 10 1022.1
20260510200802 81 221 5.0 7.0 0.00 0.00 0.00 11 1022.1
20260510200300 81 245 3.0 9.0 0.00 0.00 0.00 11 1022.1
20260510195756 81 111 3.0 6.0 0.00 0.00 0.00 11 1021.9
20260510195253 81 238 5.0 5.0 0.00 0.00 0.00 11 1022.2
20260510194752 80 237 2.0 6.0 0.00 0.00 0.00 12 1022.1
20260510194250 81 249 0.0 3.0 0.00 0.00 0.00 11 1022.1
20260510193745 80 254 2.0 6.0 0.00 0.00 0.00 12 1022.1
20260510193240 80 39 5.0 10.0 0.00 0.00 0.00 12 1022.2
20260510192736 80 149 2.0 8.0 0.00 0.00 0.00 12 1022.2
20260510192231 78 98 6.0 9.0 0.00 0.00 0.00 13 1022.3
20260510191728 79 120 14.0 16.0 0.00 0.00 0.00 12 1022.3
20260510191224 80 69 2.0 4.0 0.00 0.00 0.00 11 1022.4
20260510190722 80 127 4.0 8.0 0.00 0.00 0.00 11 1022.2
20260510190218 80 189 1.0 8.0 0.00 0.00 0.00 12 1022.2
20260510185715 78 262 2.0 6.0 0.00 0.00 0.00 13 1022.4
20260510185214 79 129 6.0 8.0 0.00 0.00 0.00 12 1022.4
20260510184710 79 79 4.0 10.0 0.00 0.00 0.00 13 1022.3
20260510184207 79 198 2.0 7.0 0.00 0.00 0.00 13 1022.5
20260510183701 80 242 2.0 4.0 0.00 0.00 0.00 14 1022.3
20260510183156 80 231 3.0 6.0 0.00 0.00 0.00 14 1022.4
20260510182653 78 83 1.0 6.0 0.00 0.00 0.00 14 1022.6
20260510182149 79 171 5.0 9.0 0.00 0.00 0.00 14 1022.4
20260510181647 78 252 1.0 6.0 0.00 0.00 0.00 16 1022.4
20260510181143 79 264 5.0 7.0 0.00 0.00 0.00 15 1022.5
20260510180639 78 212 2.0 6.0 0.00 0.00 0.00 17 1022.8
20260510180137 78 225 3.0 6.0 0.00 0.00 0.00 16 1022.6
20260510175632 78 190 1.0 4.0 0.00 0.00 0.00 16 1022.8
20260510175128 78 187 2.0 10.0 0.00 0.00 0.00 17 1022.5
20260510174626 79 172 3.0 4.0 0.00 0.00 0.00 17 1022.8
20260510174123 77 78 0.0 3.0 0.00 0.00 0.00 17 1022.4
20260510173619 77 205 4.0 5.0 0.00 0.00 0.00 17 1022.5
20260510173115 78 210 4.0 8.0 0.00 0.00 0.00 18 1022.8
20260510172611 77 231 2.0 5.0 0.00 0.00 0.00 18 1022.5
20260510172108 76 168 1.0 3.0 0.00 0.00 0.00 18 1022.8
20260510171604 76 113 4.0 8.0 0.00 0.00 0.00 18 1022.9
20260510171102 75 315 0.0 6.0 0.00 0.00 0.00 20 1022.8
20260510170558 76 103 2.0 8.0 0.00 0.00 0.00 18 1022.8
20260510170055 76 216 3.0 4.0 0.00 0.00 0.00 18 1022.5
20260510165550 76 98 0.0 4.0 0.00 0.00 0.00 19 1022.2
20260510165046 75 239 2.0 6.0 0.00 0.00 0.00 19 1022.5
20260510164544 75 139 1.0 6.0 0.00 0.00 0.00 19 1022.6
20260510164040 76 183 1.0 4.0 0.00 0.00 0.00 18 1022.3
20260510163536 77 216 3.0 4.0 0.00 0.00 0.00 18 1022.4
20260510163032 75 99 1.0 3.0 0.00 0.00 0.00 18 1022.5
20260510162527 75 197 2.0 4.0 0.00 0.00 0.00 19 1022.4
20260510162024 75 211 3.0 4.0 0.00 0.00 0.00 19 1022.4
20260510161520 75 235 4.0 6.0 0.00 0.00 0.00 19 1022.3
20260510161017 74 138 2.0 6.0 0.00 0.00 0.00 19 1022.5
20260510160514 74 206 3.0 8.0 0.00 0.00 0.00 19 1022.4
20260510160014 74 212 3.0 7.0 0.00 0.00 0.00 20 1022.4
20260510155510 74 110 2.0 7.0 0.00 0.00 0.00 19 1022.4
20260510155007 73 150 1.0 3.0 0.00 0.00 0.00 20 1022.1
20260510154503 74 172 2.0 5.0 0.00 0.00 0.00 20 1022.2
20260510154002 74 160 4.0 7.0 0.00 0.00 0.00 20 1022.1
20260510153458 73 136 2.0 4.0 0.00 0.00 0.00 20 1022.1
20260510152955 73 229 2.0 5.0 0.00 0.00 0.00 20 1021.8
20260510152452 73 54 0.0 4.0 0.00 0.00 0.00 21 1021.9
20260510151948 74 248 2.0 6.0 0.00 0.00 0.00 20 1021.8
20260510151446 73 185 2.0 4.0 0.00 0.00 0.00 20 1021.7
20260510150942 73 123 3.0 4.0 0.00 0.00 0.00 20 1022.1
20260510150438 73 178 1.0 4.0 0.00 0.00 0.00 21 1022.1
20260510145934 73 134 2.0 3.0 0.00 0.00 0.00 21 1021.7
20260510145431 73 216 3.0 3.0 0.00 0.00 0.00 21 1021.9
20260510144927 72 212 1.0 3.0 0.00 0.00 0.00 22 1021.8
20260510144424 72 143 2.0 3.0 0.00 0.00 0.00 22 1021.7
20260510143919 72 81 2.0 3.0 0.00 0.00 0.00 22 1021.7
20260510143415 72 164 2.0 3.0 0.00 0.00 0.00 22 1021.8
20260510142912 71 79 0.0 3.0 0.00 0.00 0.00 23 1021.8
20260510142409 71 151 0.0 3.0 0.00 0.00 0.00 22 1021.5
20260510141905 70 308 0.0 2.0 0.00 0.00 0.00 23 1021.6
20260510141403 70 70 2.0 4.0 0.00 0.00 0.00 22 1021.3
20260510140859 70 52 1.0 3.0 0.00 0.00 0.00 23 1021.3
20260510140355 69 271 2.0 4.0 0.00 0.00 0.00 23 1021.8
20260510135849 68 324 3.0 5.0 0.00 0.00 0.00 23 1021.6
20260510135345 66 334 4.0 6.0 0.00 0.00 0.00 24 1021.3
20260510134843 65 343 3.0 4.0 0.00 0.00 0.00 25 1021.5
20260510134340 65 335 2.0 3.0 0.00 0.00 0.00 25 1021.3
20260510133836 65 351 1.0 2.0 0.00 0.00 0.00 25 1021.2
20260510133332 65 326 0.0 2.0 0.00 0.00 0.00 25 1021.2
20260510132827 64 327 2.0 3.0 0.00 0.00 0.00 25 1021.3
20260510132325 64 31 0.0 2.0 0.00 0.00 0.00 27 1021.1
20260510131822 63 73 0.0 0.0 0.00 0.00 0.00 28 1021.2
20260510131320 63 196 1.0 2.0 0.00 0.00 0.00 28 1020.7
20260510130816 63 317 2.0 2.0 0.00 0.00 0.00 29 1021.0
20260510130313 63 110 0.0 2.0 0.00 0.00 0.00 27 1020.9
20260510125809 63 22 0.0 3.0 0.00 0.00 0.00 27 1021.0
20260510125307 62 178 1.0 2.0 0.00 0.00 0.00 28 1020.7
20260510124802 62 231 1.0 2.0 0.00 0.00 0.00 27 1020.7
20260510124300 61 108 0.0 1.0 0.00 0.00 0.00 27 1020.6
20260510123755 61 217 0.0 1.0 0.00 0.00 0.00 27 1020.7
20260510123251 61 133 0.0 2.0 0.00 0.00 0.00 27 1020.5
20260510122747 62 66 0.0 1.0 0.00 0.00 0.00 26 1020.4
20260510122244 62 37 0.0 1.0 0.00 0.00 0.00 27 1020.1
20260510121740 63 121 3.0 3.0 0.00 0.00 0.00 26 1020.4
20260510121238 63 153 0.0 2.0 0.00 0.00 0.00 25 1020.3
20260510120736 63 266 1.0 2.0 0.00 0.00 0.00 25 1020.1
20260510120232 63 308 1.0 3.0 0.00 0.00 0.00 25 1020.0
20260510115727 64 333 0.0 2.0 0.00 0.00 0.00 25 1020.3
20260510115226 64 336 0.0 1.0 0.00 0.00 0.00 24 1020.0
20260510114720 65 228 0.0 1.0 0.00 0.00 0.00 24 1020.1
20260510114218 66 249 0.0 2.0 0.00 0.00 0.00 23 1020.3
20260510113713 67 99 1.0 4.0 0.00 0.00 0.00 23 1020.0
20260510113210 67 49 3.0 4.0 0.00 0.00 0.00 22 1019.8
20260510112706 67 51 3.0 4.0 0.00 0.00 0.00 23 1019.7
20260510112204 67 43 2.0 4.0 0.00 0.00 0.00 23 1019.8
20260510111659 67 330 3.0 9.0 0.00 0.00 0.00 23 1020.0
20260510111156 67 50 4.0 6.0 0.00 0.00 0.00 24 1020.4
20260510110650 67 35 3.0 4.0 0.00 0.00 0.00 24 1020.6
20260510110149 67 30 0.0 1.0 0.00 0.00 0.00 23 1020.7
20260510105639 67 242 1.0 2.0 0.00 0.00 0.00 24 1020.7
20260510105138 68 162 1.0 3.0 0.00 0.00 0.00 23 1021.1
20260510104636 67 56 5.0 10.0 0.00 0.00 0.00 23 1020.6
20260510104132 67 339 2.0 14.0 0.00 0.00 0.00 25 1020.6
20260510103629 66 328 8.0 26.0 0.00 0.00 0.00 26 1021.1
20260510103125 67 81 4.0 5.0 0.00 0.00 0.00 22 1020.4
20260510102620 67 233 0.0 2.0 0.00 0.00 0.00 20 1019.8
20260510102117 68 241 1.0 3.0 0.00 0.00 0.00 20 1019.8
20260510101615 68 268 2.0 4.0 0.00 0.00 0.00 20 1019.7
20260510101113 67 307 5.0 8.0 0.00 0.00 0.00 20 1019.4
20260510100608 66 304 5.0 7.0 0.00 0.00 0.00 21 1019.7
20260510100106 66 310 3.0 6.0 0.00 0.00 0.00 21 1019.9
20260510095601 66 267 3.0 4.0 0.00 0.00 0.00 21 1019.9
20260510095056 65 288 3.0 4.0 0.00 0.00 0.00 22 1019.7
20260510094555 65 283 2.0 4.0 0.00 0.00 0.00 22 1019.8
20260510094051 66 342 0.0 1.0 0.00 0.00 0.00 22 1019.7
20260510093548 67 93 2.0 2.0 0.00 0.00 0.00 21 1020.0
20260510093044 68 88 2.0 9.0 0.00 0.00 0.00 20 1019.9
20260510092541 68 215 2.0 5.0 0.00 0.00 0.00 19 1019.5
20260510092041 68 183 2.0 4.0 0.00 0.00 0.00 19 1019.4
20260510091538 69 206 2.0 4.0 0.00 0.00 0.00 19 1019.7
20260510091034 69 252 5.0 6.0 0.00 0.00 0.00 19 1019.4
20260510090531 69 235 2.0 5.0 0.00 0.00 0.00 19 1019.3
20260510090027 69 225 4.0 10.0 0.00 0.00 0.00 19 1019.2
20260510085526 69 251 5.0 10.0 0.00 0.00 0.00 19 1019.1
20260510085022 68 260 4.0 6.0 0.00 0.00 0.00 19 1018.9
20260510084519 67 274 1.0 6.0 0.00 0.00 0.00 20 1018.6
20260510084016 67 224 2.0 3.0 0.00 0.00 0.00 20 1018.8
20260510083513 67 32 0.0 2.0 0.00 0.00 0.00 20 1018.9
20260510083009 68 139 0.0 3.0 0.00 0.00 0.00 20 1018.8
20260510082506 68 251 2.0 3.0 0.00 0.00 0.00 19 1018.6
20260510082001 69 120 2.0 5.0 0.00 0.00 0.00 19 1018.6
20260510081456 69 250 3.0 4.0 0.00 0.00 0.00 19 1018.5
20260510080953 69 265 2.0 5.0 0.00 0.00 0.00 19 1018.5
20260510080451 68 220 3.0 5.0 0.00 0.00 0.00 19 1018.1
20260510075949 67 256 6.0 6.0 0.00 0.00 0.00 19 1018.5
20260510075446 67 228 5.0 9.0 0.00 0.00 0.00 19 1018.3
20260510074943 66 235 3.0 10.0 0.00 0.00 0.00 20 1018.3
20260510074440 66 204 2.0 4.0 0.00 0.00 0.00 20 1018.2
20260510073936 67 311 2.0 3.0 0.00 0.00 0.00 20 1018.3
20260510073432 69 92 2.0 3.0 0.00 0.00 0.00 19 1018.2
20260510072928 70 224 0.0 5.0 0.00 0.00 0.00 18 1018.1
20260510072425 69 234 1.0 3.0 0.00 0.00 0.00 18 1018.2
20260510071920 69 268 2.0 4.0 0.00 0.00 0.00 18 1018.0
20260510071417 69 228 1.0 2.0 0.00 0.00 0.00 18 1018.0
20260510070916 70 261 2.0 5.0 0.00 0.00 0.00 17 1018.0
20260510070413 70 253 3.0 4.0 0.00 0.00 0.00 17 1018.0
20260510065908 70 257 2.0 5.0 0.00 0.00 0.00 17 1018.0
20260510065404 70 244 2.0 5.0 0.00 0.00 0.00 17 1017.9
20260510064901 71 250 2.0 3.0 0.00 0.00 0.00 17 1017.9
20260510064359 71 245 5.0 8.0 0.00 0.00 0.00 17 1017.9
20260510063855 71 255 6.0 10.0 0.00 0.00 0.00 17 1017.6
20260510063352 71 225 3.0 8.0 0.00 0.00 0.00 17 1017.4
20260510062848 71 264 4.0 7.0 0.00 0.00 0.00 17 1017.2
20260510062344 71 269 4.0 7.0 0.00 0.00 0.00 17 1017.3
20260510061839 71 246 2.0 6.0 0.00 0.00 0.00 17 1017.3
20260510061336 70 271 2.0 5.0 0.00 0.00 0.00 17 1017.2
20260510060832 71 253 3.0 4.0 0.00 0.00 0.00 16 1017.2
20260510060330 70 255 6.0 7.0 0.00 0.00 0.00 16 1017.2
20260510055827 71 213 5.0 6.0 0.00 0.00 0.00 16 1017.5
20260510055325 71 228 3.0 6.0 0.00 0.00 0.00 16 1017.5
20260510054824 70 237 2.0 5.0 0.00 0.00 0.00 16 1017.2
20260510054321 70 228 4.0 4.0 0.00 0.00 0.00 16 1017.4
20260510053816 70 219 2.0 3.0 0.00 0.00 0.00 16 1017.2
20260510053312 71 199 2.0 7.0 0.00 0.00 0.00 15 1017.2
20260510052808 72 253 4.0 4.0 0.00 0.00 0.00 15 1017.0
20260510052306 72 264 2.0 7.0 0.00 0.00 0.00 15 1016.9
20260510051800 72 254 2.0 5.0 0.00 0.00 0.00 14 1016.8
20260510051257 72 269 4.0 8.0 0.00 0.00 0.00 14 1016.9
20260510050754 72 241 3.0 9.0 0.00 0.00 0.00 14 1016.7
20260510050250 71 249 4.0 4.0 0.00 0.00 0.00 14 1016.9
20260510045747 73 272 0.0 4.0 0.00 0.00 0.00 14 1016.8
20260510045243 73 259 3.0 6.0 0.00 0.00 0.00 14 1016.7
20260510044740 73 246 6.0 9.0 0.00 0.00 0.00 14 1016.7
20260510044233 73 236 7.0 9.0 0.00 0.00 0.00 14 1016.8
20260510043728 73 252 6.0 8.0 0.00 0.00 0.00 13 1016.8
20260510043226 73 260 6.0 6.0 0.00 0.00 0.00 13 1016.9
20260510042722 73 236 3.0 6.0 0.00 0.00 0.00 13 1016.4
20260510042218 73 243 6.0 8.0 0.00 0.00 0.00 13 1016.7
20260510041715 74 234 4.0 11.0 0.00 0.00 0.00 13 1016.9
20260510041212 74 244 3.0 11.0 0.00 0.00 0.00 13 1016.7
20260510040708 73 233 3.0 7.0 0.00 0.00 0.00 13 1016.8
20260510040206 73 245 5.0 9.0 0.00 0.00 0.00 13 1016.8
20260510035702 74 236 2.0 4.0 0.00 0.00 0.00 13 1016.8
20260510035158 74 235 2.0 6.0 0.00 0.00 0.00 13 1016.9
20260510034654 75 228 3.0 9.0 0.00 0.00 0.00 13 1017.2
20260510034151 75 203 6.0 9.0 0.00 0.00 0.00 14 1016.6
20260510033647 75 202 4.0 5.0 0.00 0.00 0.00 14 1016.3
20260510033145 76 222 3.0 5.0 0.00 0.00 0.00 14 1016.4
20260510032641 76 151 2.0 4.0 0.00 0.00 0.00 13 1016.2
20260510032137 76 247 2.0 7.0 0.00 0.00 0.00 13 1016.2
20260510031631 76 247 2.0 11.0 0.00 0.00 0.00 14 1016.2
20260510031129 76 214 4.0 6.0 0.00 0.00 0.00 14 1016.1
20260510030622 76 254 4.0 7.0 0.00 0.00 0.00 14 1016.0
20260510030121 77 336 2.0 5.0 0.00 0.00 0.00 14 1015.7
20260510025617 77 318 3.0 15.0 0.00 0.00 0.00 14 1015.7
20260510025115 77 326 13.0 19.0 0.00 0.00 0.00 14 1016.3
20260510024611 77 262 3.0 5.0 0.00 0.00 0.00 14 1015.7
20260510024108 77 216 3.0 7.0 0.00 0.00 0.00 14 1015.8
20260510023604 77 260 3.0 6.0 0.00 0.00 0.00 13 1015.5
20260510023102 77 251 7.0 9.0 0.00 0.00 0.00 13 1015.4
20260510022601 77 248 2.0 6.0 0.00 0.00 0.00 14 1015.2
20260510022056 77 223 4.0 9.0 0.00 0.00 0.00 14 1015.6
20260510021553 77 247 5.0 11.0 0.00 0.00 0.00 14 1015.2
20260510021050 77 258 3.0 6.0 0.00 0.00 0.00 14 1015.2
20260510020549 76 251 3.0 4.0 0.00 0.00 0.00 15 1015.6
20260510020045 76 213 0.0 3.0 0.00 0.00 0.00 15 1015.2
20260510015542 77 223 1.0 1.0 0.00 0.00 0.00 15 1014.9
20260510015038 77 117 0.0 3.0 0.00 0.00 0.00 14 1015.2
20260510014534 78 259 3.0 6.0 0.00 0.00 0.00 14 1015.5
20260510014032 78 214 2.0 5.0 0.00 0.00 0.00 14 1015.2
20260510013526 78 234 4.0 6.0 0.00 0.00 0.00 13 1015.4
20260510013022 78 202 6.0 7.0 0.00 0.00 0.00 13 1015.5
20260510012516 78 254 3.0 6.0 0.00 0.00 0.00 13 1015.0
20260510012012 78 199 6.0 13.0 0.00 0.00 0.00 13 1015.1
20260510011507 78 225 2.0 6.0 0.00 0.00 0.00 13 1015.1
20260510011003 79 217 2.0 5.0 0.00 0.00 0.00 13 1015.1
20260510010500 79 170 1.0 11.0 0.00 0.00 0.00 12 1015.5
20260510005957 79 290 3.0 8.0 0.00 0.00 0.00 12 1015.4
20260510005452 80 202 1.0 3.0 0.00 0.00 0.00 12 1015.0
20260510004950 80 95 4.0 4.0 0.00 0.00 0.00 12 1015.0
20260510004447 80 155 1.0 4.0 0.00 0.00 0.00 12 1014.9
20260510003945 80 241 1.0 4.0 0.00 0.00 0.00 12 1015.1
20260510003442 80 99 3.0 6.0 0.00 0.00 0.00 12 1015.1
20260510002942 81 115 3.0 13.0 0.00 0.00 0.00 12 1014.9
20260510002438 81 85 6.0 13.0 0.00 0.00 0.00 12 1015.2
20260510001935 82 208 2.0 15.0 0.00 0.00 0.00 12 1015.0
20260510001432 83 129 5.0 10.0 0.00 0.00 0.00 11 1015.0
20260510000930 82 145 6.0 11.0 0.00 0.00 0.00 12 1015.2
20260510000426 81 89 4.0 8.0 0.00 0.00 0.00 12 1015.2
20260509235923 81 190 5.0 17.0 0.00 0.00 0.00 12 1015.0
20260509235420 82 107 7.0 15.0 0.00 0.00 0.00 11 1015.2
20260509234916 82 169 2.0 12.0 0.00 0.00 0.00 12 1015.1
20260509234413 82 235 2.0 3.0 0.00 0.00 0.00 11 1014.9
20260509233911 82 110 1.0 5.0 0.00 0.00 0.00 11 1015.0
20260509233408 82 222 2.0 5.0 0.00 0.00 0.00 11 1015.0
20260509232904 82 214 6.0 7.0 0.00 0.00 0.00 10 1015.1
20260509232402 82 247 3.0 11.0 0.00 0.00 0.00 11 1015.1
20260509231858 82 218 5.0 11.0 0.00 0.00 0.00 11 1015.5
20260509231354 82 214 5.0 6.0 0.00 0.00 0.00 10 1015.1
20260509230852 82 203 3.0 9.0 0.00 0.00 0.00 10 1015.0
20260509230349 83 224 5.0 9.0 0.00 0.00 0.00 10 1015.0
20260509225844 85 223 9.0 11.0 0.00 0.00 0.00 10 1015.1
20260509225342 84 227 1.0 11.0 0.00 0.00 0.00 10 1015.1
20260509224837 83 283 4.0 10.0 0.00 0.00 0.00 10 1015.1
20260509224333 84 229 4.0 7.0 0.00 0.00 0.00 10 1015.2
20260509223831 84 133 4.0 17.0 0.00 0.00 0.00 10 1015.4
20260509223327 85 254 0.0 13.0 0.00 0.00 0.00 10 1015.4
20260509222825 85 288 2.0 4.0 0.00 0.00 0.00 10 1015.5
20260509222320 85 255 3.0 7.0 0.00 0.00 0.00 10 1015.4
20260509221815 86 209 2.0 14.0 0.00 0.00 0.00 10 1015.6
20260509221314 86 176 2.0 9.0 0.00 0.00 0.00 10 1015.7
20260509220814 86 224 4.0 11.0 0.00 0.00 0.00 10 1016.0